Location: Newark
(0.5300°S, 127.4800°E)
Time: 04:56:17
(UTC+00:00)

Vanguard 3 - Pass Details

Date: 18 September 2019
Orbit: 508 x 3262 km, 33.3° (Epoch: 17 October)

Event Time Altitude Azimuth Distance (km) Brightness Sun altitude
Rises 21:17:21 0° 247° (WSW) 4,314 10.3 -1.7°
Reaches altitude 10° 21:19:48 10° 251° (WSW) 3,627 9.9 -1.1°
Maximum altitude 21:29:37 59° 329° (NNW) 2,417 9.5 1.3°
Drops below altitude 10° 21:46:24 10° 44° (NE) 5,888 12.3 5.5°
Sets 21:51:41 0° 48° (NE) 7,107 12.8 6.9°
